GW2873 Weather Reports


time (UTC)temp
F
wind
direction
speed
knots
gust
knots
rain 1hr
in
rain 24hr
in
rain mn
in
humidity
%
barometer
mb
20260506134556 53 53 0.9 9.6 0.12 0.22 0.22 97 1008.0
20260506133055 52 195 0.0 2.6 0.10 0.19 0.19 96 1008.2
20260506131607 52 0 0.0 0.9 0.08 0.16 0.16 96 1008.5
20260506130057 52 0 0.0 1.7 0.05 0.12 0.12 95 1008.3
20260506124601 53 0 0.0 0.9 0.04 0.10 0.10 96 1007.8
20260506123112 52 0 0.0 0.9 0.05 0.09 0.09 96 1007.9
20260506121612 53 0 0.0 0.0 0.06 0.08 0.08 95 1008.0
20260506120058 52 0 0.0 0.0 0.06 0.07 0.07 95 1008.3
20260506114554 53 0 0.0 0.0 0.05 0.06 0.06 94 1008.2
20260506113056 53 241 0.0 0.0 0.03 0.04 0.04 92 1008.3
20260506111558 53 0 0.0 0.9 0.02 0.02 0.02 91 1008.5
20260506110103 54 0 0.0 1.7 0.01 0.01 0.01 88 1008.3
20260506104606 55 242 0.0 1.7 0.01 0.01 0.01 84 1008.0
20260506103103 56 0 0.0 1.7 0.01 0.01 0.01 79 1007.9
20260506101625 57 136 0.0 1.7 0.00 0.00 0.00 75 1007.8
20260506100059 58 184 0.9 6.1 0.00 0.00 0.00 70 1007.8
20260506094600 59 0 0.9 2.6 0.00 0.00 0.00 67 1007.8
20260506093100 59 207 0.9 5.2 0.00 0.00 0.00 65 1007.6
20260506091558 59 0 0.0 3.5 0.00 0.00 0.00 64 1007.8
20260506090109 59 0 0.9 6.1 0.00 0.00 0.00 63 1007.8
20260506084620 59 221 0.9 3.5 0.00 0.00 0.00 62 1007.9
20260506083058 60 156 0.0 5.2 0.00 0.00 0.00 62 1007.9
20260506081613 60 192 0.9 4.3 0.00 0.00 0.00 61 1007.7
20260506073101 59 155 1.7 6.1 0.00 0.00 0.00 63 1008.1
20260506071555 59 195 1.7 6.1 0.00 0.00 0.00 64 1008.3
20260506061559 52 0 0.0 0.0 0.00 0.00 0.00 96 1008.7
20260506050117 53 0 0.0 1.7 0.00 0.00 0.00 93 1009.4
20260506044555 53 0 0.0 1.7 0.00 0.00 0.00 90 1009.5
20260506043058 54 0 0.0 0.9 0.00 0.00 0.00 90 1009.6
20260506041604 55 296 0.0 0.9 0.00 0.00 0.00 88 1009.8
20260506040058 56 0 0.0 0.0 0.00 0.00 0.00 86 1009.8
20260506034556 56 0 0.0 2.6 0.00 0.00 0.00 83 1009.8
20260506033057 57 0 0.0 1.7 0.00 0.00 0.00 79 1009.7
20260506031554 57 263 0.0 1.7 0.00 0.00 0.00 79 1009.6
20260506030057 58 232 0.0 1.7 0.00 0.00 0.00 78 1009.6
20260506024603 59 0 0.9 2.6 0.00 0.00 0.00 78 1009.5
20260506023108 60 304 0.0 2.6 0.00 0.00 0.00 76 1009.6
20260506021557 61 304 0.0 2.6 0.00 0.00 0.00 73 1009.6
20260506014603 59 262 0.0 1.7 0.00 0.00 0.00 76 1009.4
20260506013103 60 0 0.0 1.7 0.00 0.00 0.00 75 1009.4
20260506011605 60 0 0.0 0.0 0.00 0.00 0.00 76 1009.1
20260506010057 60 0 0.0 0.9 0.00 0.00 0.00 76 1009.0
20260506004601 60 0 0.0 0.9 0.00 0.00 0.00 78 1008.9
20260506003058 60 0 0.0 1.7 0.00 0.00 0.00 80 1008.9
20260506001559 60 0 0.0 1.7 0.00 0.00 0.00 81 1009.1
20260505234555 61 0 0.0 0.9 0.00 0.00 0.00 81 1008.7
20260505233058 61 0 0.0 0.9 0.00 0.00 0.00 79 1008.8
20260505231557 62 0 0.0 1.7 0.00 0.00 0.00 79 1008.6
20260505230120 63 162 2.6 8.7 0.00 0.00 0.00 75 1008.6
20260505224555 62 136 0.0 2.6 0.00 0.00 0.00 72 1008.0
20260505223059 62 0 0.0 1.7 0.00 0.00 0.00 78 1008.1
20260505221602 61 0 0.0 2.6 0.00 0.00 0.00 77 1007.9
20260505220104 62 194 0.0 3.5 0.00 0.00 0.00 76 1008.0
20260505214557 63 178 0.9 2.6 0.00 0.00 0.00 77 1008.0
20260505213056 64 309 1.7 4.3 0.00 0.00 0.00 76 1007.9
20260505211604 65 221 1.7 5.2 0.00 0.00 0.00 69 1007.9
20260505210106 65 33 0.0 2.6 0.00 0.00 0.00 70 1007.6
20260505204603 66 57 0.0 4.3 0.00 0.00 0.00 71 1007.7
20260505203107 70 153 3.5 9.6 0.00 0.00 0.00 46 1007.3
20260505201557 72 261 2.6 13.9 0.00 0.00 0.00 42 1006.7
20260505200109 72 222 5.2 13.0 0.00 0.00 0.00 40 1006.6
20260505194556 74 211 6.1 13.0 0.00 0.00 0.00 39 1006.7
20260505193104 75 192 3.5 14.8 0.00 0.00 0.00 39 1007.0
20260505191607 73 202 5.2 14.8 0.00 0.00 0.00 42 1007.1
20260505190056 73 128 3.5 18.2 0.00 0.00 0.00 40 1007.5
20260505184559 75 259 3.5 11.3 0.00 0.00 0.00 40 1007.6
20260505183057 76 138 4.3 12.2 0.00 0.00 0.00 38 1007.5
20260505181558 76 137 3.5 12.2 0.00 0.00 0.00 40 1008.0
20260505180057 75 213 3.5 10.4 0.00 0.00 0.00 42 1008.3
20260505174602 74 235 2.6 10.4 0.00 0.00 0.00 45 1008.4
20260505173057 75 107 3.5 13.9 0.00 0.00 0.00 44 1008.3
20260505171556 75 187 2.6 11.3 0.00 0.00 0.00 44 1008.2
20260505170058 74 5 2.6 14.8 0.00 0.00 0.00 45 1008.1
20260505164600 74 225 3.5 18.2 0.00 0.00 0.00 45 1008.6
20260505163102 75 169 3.5 17.4 0.00 0.00 0.00 45 1008.7
20260505161607 75 176 3.5 10.4 0.00 0.00 0.00 44 1009.0
20260505153057 73 145 2.6 8.7 0.00 0.00 0.00 49 1009.2
20260505151556 72 213 3.5 9.6 0.00 0.00 0.00 49 1009.1
20260505150105 71 221 2.6 9.6 0.00 0.00 0.00 51 1009.0